Home   Weather   Reno   Past weeks

Flag for USA Past Weather in Reno, Nevada, USA — Yesterday and Last 2 Weeks

Now
71 °F

Passing clouds.


Feels Like: 77 °F
Forecast: 61 / 91 °F
Wind: 8 mph from West

Location: Reno Tahoe International Airport

Current Time: Aug 20, 2017 at 3:10:34 am

Latest Report: Aug 20, 2017 at 1:55 am


Visibility: 10 mi

Pressure: 29.85 "Hg (25.46 "Hg at 1372m altitude)

Humidity: 41%

Dew Point: 46 °F

Location of RenoLocation

Past Weather in Reno — Graph

°F

Reno Temperature Yesterday

Maximum temperature yesterday: 95 °F (at 2:43 pm)
Minimum temperature yesterday: 65 °F (at 4:55 am)
Average temperature yesterday: 80 °F

High & Low Weather Summary for the Past Weeks

 TemperatureHumidityPressure
High95 °F (Aug 18, 2:55 pm)72% (Aug 7, 5:55 am)30.08 "Hg (Aug 7, 5:55 am)
Low58 °F (Aug 7, 5:55 am)11% (Aug 11, 4:55 pm)29.70 "Hg (Aug 14, 6:55 pm)
Average77 °F35%29.90 "Hg
* Reported Aug 5 1:55 am — Aug 20 1:55 am, Reno. Weather by CustomWeather, © 2017

Note: Actual official high and low records may vary slightly from our data, if they occured in-between our weather recording intervals... More about our weather records

Advertising

Reno Weather History for the Previous 24 Hours

Scroll right to see more
 ConditionsComfort  
Time TempWeatherWind HumidityBarometerVisibility
1:55 am
Sun, Aug 20
71 °FPassing clouds.8 mph41%29.85 "Hg10 mi
12:55 am72 °FPassing clouds.6 mph40%29.84 "Hg10 mi
11:55 pm
Sat, Aug 19
72 °FPassing clouds.5 mph38%29.85 "Hg10 mi
10:55 pm74 °FPartly cloudy.8 mph35%29.85 "Hg10 mi
9:55 pm76 °FPassing clouds.5 mph35%29.87 "Hg10 mi
8:55 pm78 °FPartly cloudy.15 mph31%29.87 "Hg10 mi
8:26 pm81 °FPassing clouds.12 mph24%30.04 "Hg10 mi
7:55 pm82 °FThunderstorms. Passing clouds.14 mph22%29.87 "Hg10 mi
6:55 pm82 °FPartly sunny.20 mph25%29.89 "Hg10 mi
5:55 pm84 °FBroken clouds.21 mph25%29.86 "Hg10 mi
4:55 pm86 °FThunderstorms. Partly sunny.30 mph25%29.83 "Hg10 mi
4:32 pm86 °FThunderstorms. Partly sunny.39 mph25%30.00 "Hg7 mi
3:55 pm95 °FBroken clouds.14 mph13%29.78 "Hg10 mi
2:55 pm94 °FBroken clouds.17 mph16%29.79 "Hg10 mi
2:43 pm95 °FScattered clouds.16 mph14%30.00 "Hg10 mi
1:55 pm94 °FScattered clouds.5 mph13%29.81 "Hg10 mi
12:55 pm93 °FScattered clouds.5 mph12%29.83 "Hg10 mi
11:55 am88 °FPassing clouds.5 mph18%29.86 "Hg10 mi
10:55 am83 °FPassing clouds.3 mph24%29.89 "Hg10 mi
9:55 am79 °FPassing clouds.No wind29%29.91 "Hg10 mi
8:55 am74 °FPassing clouds.No wind37%29.92 "Hg10 mi
7:55 am68 °FPassing clouds.No wind45%29.93 "Hg10 mi
6:55 am66 °FPassing clouds.3 mph49%29.92 "Hg10 mi
5:55 am65 °FPassing clouds.6 mph51%29.92 "Hg10 mi
4:55 am65 °FPassing clouds.5 mph52%29.91 "Hg10 mi
3:55 am69 °FClear.No wind44%29.91 "Hg10 mi
Weather by CustomWeather, © 2017

See weather overviewHow to use our weather pages